sat.trackr.live / text

‹ back to catalog

USA 271

NORAD 41745 · 2016-052B

PAYLOAD ACTIVE UNKNOWN

§ Identity

Operator
Country
US
Launch date
2016-08-19
Launch site
AFETR
Launch vehicle
Mass (kg)
RCS (m²)

Purposes: comms

External: N2YO · Heavens-Above · Gunter

§ Orbital elements

Epoch: 2026-05-24T09:34:51.738816Z

Period
1,436.02 min
Inclination
4.1119°
Eccentricity
0.0011481
Mean motion
1.00277427 rev/d
Perigee alt
35,736.6 km
Apogee alt
35,833.4 km
Semi-major
42,163.2 km
B*
0.0000e+0
RAAN
77.5597°
Arg perigee
149.6685°
Mean anomaly
281.5069°
Rev number
2,768

§ Raw data

USA 2711 41745U 16052B   26144.39920994 -.00000361  00000+0  00000+0 0  99962 41745   4.1119  77.5597 0011481 149.6685 281.5069  1.00277427 27687

JSON: /api/v1/satellites/41745 · /tle

For live sub-satellite position, see the globe view (requires WebGL).

§ Visibility from observer

Set your observer location to see the next 7 days of passes ≥ 10°. The values pass through the URL so the page stays shareable.

No JS? Fill the form by hand. The geolocation button needs JavaScript.